Starlink 30888

operational
NORAD ID: 58370 Int'l Des: 2023-177 Owner: SPXS Country: US Constellation: starlink
LEOCIRCULAR

Starlink 30888について

説明を読み込み中...

リアルタイム位置

3D地球を読み込み中...

次回通過

高度履歴

Altitude vs Time

uPlot chart will show altitude changes over time

軌道要素

1 58370U 23177V 25350.94882165 .00000313 00000-0 38253-4 0 9993
2 58370 43.0015 81.6615 0000684 36.8002 323.2887 15.02530166115775
Epoch: Dec 16, 2025 • Age: 18 hours

現在のステータス

高度 560.2 km
速度 7.59 km/s
衛星直下点 33.33°N, 126.79°W
打ち上げ日 Nov 18, 2023
運用期間 2 years
タイプ internet

技術仕様

分類 Payload
質量 730.00 kg
乾燥質量 700.00 kg
総質量 730.00 kg
長さ 0.30 m
直径 4.10 m
スパン 29.00 m
形状 Box + pan
製造者 SPXS
バスタイプ Starlink V2M
フェーズステータス In Orbit
所有者/国 SPXS/US

大規模コンステレーション

Loading constellations...